,,PressureMeas_1m,,PRMeasQMR101_1,,RHStat155_1m_1,,SRMeasQMS101R_1m,,TAStat155_1m_1,,GenWind_1,,GenWind_1,
2018-06-24, 07:00:06,VALID,918.835,VALID,0.0,VALID,97.122,VALID,47.098,VALID,18.245,VALID,359.0,VALID,0.0,
2018-06-24, 07:01:06,VALID,918.842,VALID,0.0,VALID,97.237,VALID,48.402,VALID,18.314,VALID,355.0,VALID,0.0,
2018-06-24, 07:02:06,VALID,918.847,VALID,0.0,VALID,97.289,VALID,49.398,VALID,18.349,VALID,337.0,VALID,0.0,
2018-06-24, 07:03:06,VALID,918.859,VALID,0.0,VALID,97.103,VALID,50.359,VALID,18.335,VALID,330.0,VALID,0.0,
2018-06-24, 07:04:06,VALID,918.864,VALID,0.0,VALID,97.033,VALID,51.71,VALID,18.364,VALID,336.0,VALID,0.0,
2018-06-24, 07:05:06,VALID,918.866,VALID,0.0,VALID,96.745,VALID,53.573,VALID,18.358,VALID,350.0,VALID,0.0,
2018-06-24, 07:06:06,VALID,918.866,VALID,0.0,VALID,96.373,VALID,55.955,VALID,18.376,VALID,3.0,VALID,0.0,
2018-06-24, 07:07:06,VALID,918.859,VALID,0.0,VALID,96.115,VALID,58.83,VALID,18.406,VALID,6.0,VALID,0.0,
2018-06-24, 07:08:06,VALID,918.87,VALID,0.0,VALID,96.048,VALID,62.471,VALID,18.447,VALID,7.0,VALID,0.0,
2018-06-24, 07:09:06,VALID,918.862,VALID,0.0,VALID,96.183,VALID,66.984,VALID,18.502,VALID,3.0,VALID,0.0,
2018-06-24, 07:10:06,VALID,918.859,VALID,0.0,VALID,96.095,VALID,72.059,VALID,18.509,VALID,351.0,VALID,0.0,
2018-06-24, 07:11:06,VALID,918.849,VALID,0.0,VALID,95.601,VALID,77.346,VALID,18.515,VALID,355.0,VALID,0.0,
2018-06-24, 07:12:06,VALID,918.844,VALID,0.0,VALID,94.997,VALID,82.014,VALID,18.53,VALID,349.0,VALID,0.0,
2018-06-24, 07:13:06,VALID,918.842,VALID,0.0,VALID,94.713,VALID,90.949,VALID,18.575,VALID,346.0,VALID,0.0,
2018-06-24, 07:14:06,VALID,918.858,VALID,0.0,VALID,95.206,VALID,99.74,VALID,18.65,VALID,346.0,VALID,0.0,
2018-06-24, 07:15:06,VALID,918.867,VALID,0.0,VALID,95.452,VALID,111.082,VALID,18.701,VALID,352.0,VALID,0.0,
2018-06-24, 07:16:06,VALID,918.87,VALID,0.0,VALID,95.224,VALID,129.046,VALID,18.742,VALID,347.0,VALID,0.0,
2018-06-24, 07:17:06,VALID,918.88,VALID,0.0,VALID,95.489,VALID,124.917,VALID,18.806,VALID,338.0,VALID,0.0,
2018-06-24, 07:18:06,VALID,918.886,VALID,0.0,VALID,95.408,VALID,122.731,VALID,18.836,VALID,334.0,VALID,0.0,
2018-06-24, 07:19:06,VALID,918.905,VALID,0.0,VALID,95.849,VALID,130.597,VALID,18.886,VALID,327.0,VALID,0.0,
2018-06-24, 07:20:06,VALID,918.914,VALID,0.0,VALID,95.216,VALID,139.847,VALID,18.864,VALID,328.0,VALID,0.0,
2018-06-24, 07:21:06,VALID,918.924,VALID,0.0,VALID,95.253,VALID,130.54,VALID,18.893,VALID,346.0,VALID,0.0,
2018-06-24, 07:22:06,VALID,918.94,VALID,0.0,VALID,95.04,VALID,120.262,VALID,18.906,VALID,341.0,VALID,0.0,
2018-06-24, 07:23:06,VALID,918.953,VALID,0.0,VALID,95.366,VALID,112.12,VALID,18.938,VALID,345.0,VALID,0.0,
2018-06-24, 07:24:06,VALID,918.971,VALID,0.0,VALID,95.069,VALID,109.969,VALID,18.939,VALID,337.0,VALID,0.0,
2018-06-24, 07:25:06,VALID,918.979,VALID,0.0,VALID,94.825,VALID,110.994,VALID,18.933,VALID,331.0,VALID,0.0,
2018-06-24, 07:26:06,VALID,918.99,VALID,0.0,VALID,94.808,VALID,113.605,VALID,18.962,VALID,337.0,VALID,0.0,
2018-06-24, 07:27:06,VALID,918.989,VALID,0.0,VALID,94.702,VALID,117.08,VALID,19.003,VALID,342.0,VALID,0.0,
2018-06-24, 07:28:06,VALID,919.007,VALID,0.0,VALID,95.217,VALID,120.715,VALID,19.051,VALID,326.0,VALID,0.0,
2018-06-24, 07:29:06,VALID,919.017,VALID,0.0,VALID,94.77,VALID,124.316,VALID,19.034,VALID,318.0,VALID,0.0,
2018-06-24, 07:30:06,VALID,919.032,VALID,0.0,VALID,94.304,VALID,127.092,VALID,19.024,VALID,316.0,VALID,0.0,
2018-06-24, 07:31:06,VALID,919.051,VALID,0.0,VALID,94.429,VALID,128.708,VALID,19.006,VALID,324.0,VALID,0.649,
2018-06-24, 07:32:06,VALID,919.05,VALID,0.0,VALID,94.429,VALID,129.546,VALID,19.012,VALID,3.0,VALID,0.848,
2018-06-24, 07:33:06,VALID,919.062,VALID,0.0,VALID,94.255,VALID,130.056,VALID,19.02,VALID,337.0,VALID,0.67,
2018-06-24, 07:34:06,VALID,919.082,VALID,0.0,VALID,94.45,VALID,130.615,VALID,19.042,VALID,350.0,VALID,0.421,
2018-06-24, 07:35:06,VALID,919.104,VALID,0.0,VALID,93.983,VALID,131.232,VALID,19.033,VALID,334.0,VALID,0.639,
2018-06-24, 07:36:06,VALID,919.109,VALID,0.0,VALID,94.543,VALID,132.099,VALID,19.078,VALID,340.0,VALID,0.47,
2018-06-24, 07:37:06,VALID,919.127,VALID,0.0,VALID,94.035,VALID,133.215,VALID,19.073,VALID,352.0,VALID,0.614,
2018-06-24, 07:38:06,VALID,919.147,VALID,0.0,VALID,93.722,VALID,134.824,VALID,19.069,VALID,353.0,VALID,0.66,
2018-06-24, 07:39:06,VALID,919.151,VALID,0.0,VALID,94.233,VALID,137.347,VALID,19.127,VALID,359.0,VALID,0.776,
2018-06-24, 07:40:06,VALID,919.141,VALID,0.0,VALID,93.444,VALID,140.18,VALID,19.129,VALID,1.0,VALID,1.183,
2018-06-24, 07:41:06,VALID,919.148,VALID,0.0,VALID,93.576,VALID,139.028,VALID,19.179,VALID,3.0,VALID,0.839,
2018-06-24, 07:42:06,VALID,919.156,VALID,0.0,VALID,94.152,VALID,135.225,VALID,19.251,VALID,347.0,VALID,0.775,
2018-06-24, 07:43:06,VALID,919.172,VALID,0.0,VALID,93.729,VALID,136.09,VALID,19.27,VALID,335.0,VALID,1.077,
2018-06-24, 07:44:06,VALID,919.172,VALID,0.0,VALID,92.631,VALID,141.119,VALID,19.274,VALID,343.0,VALID,0.964,
2018-06-24, 07:45:06,VALID,919.185,VALID,0.0,VALID,92.556,VALID,146.711,VALID,19.315,VALID,345.0,VALID,0.548,
2018-06-24, 07:46:06,VALID,919.197,VALID,0.0,VALID,93.196,VALID,153.519,VALID,19.38,VALID,1.0,VALID,0.325,
2018-06-24, 07:47:06,VALID,919.2,VALID,0.0,VALID,93.182,VALID,164.169,VALID,19.444,VALID,336.0,VALID,0.125,
2018-06-24, 07:48:06,VALID,919.217,VALID,0.0,VALID,92.99,VALID,178.818,VALID,19.493,VALID,1.0,VALID,0.588,
2018-06-24, 07:49:06,VALID,919.214,VALID,0.0,VALID,92.974,VALID,213.632,VALID,19.56,VALID,360.0,VALID,0.598,
2018-06-24, 07:50:06,VALID,919.215,VALID,0.0,VALID,92.692,VALID,221.74,VALID,19.635,VALID,339.0,VALID,0.941,
2018-06-24, 07:51:06,VALID,919.229,VALID,0.0,VALID,91.451,VALID,224.756,VALID,19.683,VALID,329.0,VALID,0.883,
2018-06-24, 07:52:06,VALID,919.232,VALID,0.0,VALID,91.174,VALID,242.828,VALID,19.739,VALID,329.0,VALID,0.981,
2018-06-24, 07:53:06,VALID,919.221,VALID,0.0,VALID,90.417,VALID,239.345,VALID,19.799,VALID,321.0,VALID,0.741,
2018-06-24, 07:54:06,VALID,919.214,VALID,0.0,VALID,90.664,VALID,233.809,VALID,19.875,VALID,336.0,VALID,0.996,
2018-06-24, 07:55:06,VALID,919.212,VALID,0.0,VALID,90.951,VALID,209.651,VALID,19.93,VALID,346.0,VALID,1.056,
2018-06-24, 07:56:06,VALID,919.195,VALID,0.0,VALID,91.16,VALID,201.127,VALID,19.923,VALID,355.0,VALID,1.14,
2018-06-24, 07:57:06,VALID,919.182,VALID,0.0,VALID,91.195,VALID,199.458,VALID,19.93,VALID,341.0,VALID,0.466,
2018-06-24, 07:58:06,VALID,919.198,VALID,0.0,VALID,91.568,VALID,199.335,VALID,19.998,VALID,332.0,VALID,0.469,
2018-06-24, 07:59:06,VALID,919.217,VALID,0.0,VALID,90.32,VALID,203.001,VALID,20.045,VALID,311.0,VALID,0.514,
2018-06-24, 08:00:06,VALID,919.229,VALID,0.0,VALID,90.242,VALID,209.516,VALID,20.107,VALID,291.0,VALID,0.293,
2018-06-24, 08:01:06,VALID,919.243,VALID,0.0,VALID,90.158,VALID,213.684,VALID,20.074,VALID,271.0,VALID,0.233,
2018-06-24, 08:02:06,VALID,919.255,VALID,0.0,VALID,90.1,VALID,227.602,VALID,20.04,VALID,276.0,VALID,0.0,
2018-06-24, 08:03:06,VALID,919.269,VALID,0.0,VALID,90.67,VALID,227.778,VALID,20.079,VALID,265.0,VALID,0.0,
2018-06-24, 08:04:06,VALID,919.277,VALID,0.0,VALID,90.61,VALID,230.329,VALID,20.139,VALID,312.0,VALID,0.097,
2018-06-24, 08:05:06,VALID,919.275,VALID,0.0,VALID,88.804,VALID,232.299,VALID,20.177,VALID,339.0,VALID,0.976,
2018-06-24, 08:06:06,VALID,919.279,VALID,0.0,VALID,88.432,VALID,232.462,VALID,20.222,VALID,334.0,VALID,0.455,
2018-06-24, 08:07:06,VALID,919.28,VALID,0.0,VALID,89.472,VALID,232.744,VALID,20.317,VALID,306.0,VALID,0.568,
2018-06-24, 08:08:06,VALID,919.286,VALID,0.0,VALID,89.119,VALID,234.913,VALID,20.392,VALID,310.0,VALID,0.528,
2018-06-24, 08:09:06,VALID,919.283,VALID,0.0,VALID,88.291,VALID,238.646,VALID,20.435,VALID,319.0,VALID,0.374,
2018-06-24, 08:10:06,VALID,919.284,VALID,0.0,VALID,88.664,VALID,243.916,VALID,20.511,VALID,336.0,VALID,0.499,
2018-06-24, 08:11:06,VALID,919.287,VALID,0.0,VALID,89.475,VALID,249.012,VALID,20.546,VALID,356.0,VALID,0.583,
2018-06-24, 08:12:06,VALID,919.288,VALID,0.0,VALID,87.745,VALID,252.496,VALID,20.556,VALID,324.0,VALID,0.988,
2018-06-24, 08:13:06,VALID,919.293,VALID,0.0,VALID,87.908,VALID,251.603,VALID,20.573,VALID,332.0,VALID,0.912,
2018-06-24, 08:14:06,VALID,919.298,VALID,0.0,VALID,89.633,VALID,248.722,VALID,20.598,VALID,334.0,VALID,0.896,
2018-06-24, 08:15:06,VALID,919.299,VALID,0.0,VALID,88.713,VALID,242.238,VALID,20.593,VALID,351.0,VALID,1.18,
2018-06-24, 08:16:06,VALID,919.297,VALID,0.0,VALID,89.643,VALID,234.81,VALID,20.549,VALID,17.0,VALID,1.413,
2018-06-24, 08:17:06,VALID,919.294,VALID,0.0,VALID,90.11,VALID,228.066,VALID,20.501,VALID,354.0,VALID,1.339,
2018-06-24, 08:18:06,VALID,919.297,VALID,0.0,VALID,89.999,VALID,222.132,VALID,20.405,VALID,6.0,VALID,1.407,
2018-06-24, 08:19:06,VALID,919.288,VALID,0.0,VALID,90.067,VALID,217.665,VALID,20.274,VALID,4.0,VALID,1.825,
2018-06-24, 08:20:06,VALID,919.283,VALID,0.0,VALID,88.901,VALID,214.4,VALID,20.118,VALID,5.0,VALID,1.551,
2018-06-24, 08:21:06,VALID,919.304,VALID,0.0,VALID,91.741,VALID,211.891,VALID,20.126,VALID,355.0,VALID,0.811,
2018-06-24, 08:22:06,VALID,919.309,VALID,0.0,VALID,91.296,VALID,209.154,VALID,20.172,VALID,343.0,VALID,0.561,
2018-06-24, 08:23:06,VALID,919.311,VALID,0.0,VALID,92.104,VALID,205.516,VALID,20.233,VALID,346.0,VALID,1.215,
2018-06-24, 08:24:06,VALID,919.306,VALID,0.0,VALID,90.669,VALID,200.553,VALID,20.219,VALID,333.0,VALID,1.274,
2018-06-24, 08:25:06,VALID,919.287,VALID,0.0,VALID,88.304,VALID,195.162,VALID,20.202,VALID,326.0,VALID,0.968,
2018-06-24, 08:26:06,VALID,919.273,VALID,0.0,VALID,89.249,VALID,189.813,VALID,20.237,VALID,313.0,VALID,0.754,
2018-06-24, 08:27:06,VALID,919.27,VALID,0.0,VALID,89.96,VALID,185.837,VALID,20.283,VALID,351.0,VALID,0.477,
2018-06-24, 08:28:06,VALID,919.253,VALID,0.0,VALID,90.408,VALID,184.215,VALID,20.278,VALID,4.0,VALID,1.424,
2018-06-24, 08:29:06,VALID,919.274,VALID,0.0,VALID,90.289,VALID,184.403,VALID,20.216,VALID,302.0,VALID,0.766,
2018-06-24, 08:30:06,VALID,919.282,VALID,0.0,VALID,90.02,VALID,185.615,VALID,20.219,VALID,326.0,VALID,0.591,
2018-06-24, 08:31:06,VALID,919.289,VALID,0.0,VALID,91.09,VALID,187.624,VALID,20.284,VALID,275.0,VALID,0.2,
2018-06-24, 08:32:06,VALID,919.286,VALID,0.0,VALID,91.029,VALID,190.521,VALID,20.276,INVALID,360.0,VALID,0.002,
2018-06-24, 08:33:06,VALID,919.264,VALID,0.0,VALID,89.571,VALID,193.249,VALID,20.185,INVALID,360.0,VALID,0.0,
2018-06-24, 08:34:06,VALID,919.269,VALID,0.0,VALID,89.572,VALID,195.259,VALID,20.183,INVALID,360.0,VALID,0.114,
2018-06-24, 08:35:06,VALID,919.255,VALID,0.0,VALID,89.06,VALID,196.092,VALID,20.245,VALID,356.0,VALID,0.794,
2018-06-24, 08:36:06,VALID,919.237,VALID,0.0,VALID,89.523,VALID,195.626,VALID,20.328,VALID,2.0,VALID,0.368,
2018-06-24, 08:37:06,VALID,919.234,VALID,0.0,VALID,90.063,VALID,194.057,VALID,20.401,VALID,353.0,VALID,0.878,
2018-06-24, 08:38:06,VALID,919.223,VALID,0.0,VALID,89.798,VALID,191.301,VALID,20.427,VALID,338.0,VALID,0.934,
2018-06-24, 08:39:06,VALID,919.219,VALID,0.0,VALID,89.173,VALID,187.712,VALID,20.439,VALID,348.0,VALID,0.772,
2018-06-24, 08:40:06,VALID,919.215,VALID,0.0,VALID,90.07,VALID,183.292,VALID,20.447,VALID,326.0,VALID,0.815,
2018-06-24, 08:41:06,VALID,919.206,VALID,0.0,VALID,88.062,VALID,178.705,VALID,20.451,VALID,329.0,VALID,0.773,
2018-06-24, 08:42:06,VALID,919.198,VALID,0.0,VALID,88.759,VALID,174.268,VALID,20.427,VALID,350.0,VALID,1.047,
2018-06-24, 08:43:06,VALID,919.209,VALID,0.0,VALID,89.989,VALID,170.676,VALID,20.4,VALID,338.0,VALID,0.906,
2018-06-24, 08:44:06,VALID,919.197,VALID,0.0,VALID,89.063,VALID,168.255,VALID,20.354,VALID,1.0,VALID,1.429,
2018-06-24, 08:45:06,VALID,919.207,VALID,0.0,VALID,88.841,VALID,167.681,VALID,20.32,VALID,351.0,VALID,1.52,
2018-06-24, 08:46:06,VALID,919.226,VALID,0.0,VALID,89.938,VALID,168.974,VALID,20.334,VALID,356.0,VALID,0.607,
2018-06-24, 08:47:06,VALID,919.234,VALID,0.0,VALID,90.546,VALID,171.664,VALID,20.378,VALID,356.0,VALID,0.742,
2018-06-24, 08:48:06,VALID,919.239,VALID,0.0,VALID,89.611,VALID,174.932,VALID,20.379,VALID,344.0,VALID,0.777,
2018-06-24, 08:49:06,VALID,919.249,VALID,0.0,VALID,90.515,VALID,178.397,VALID,20.409,VALID,344.0,VALID,0.499,
2018-06-24, 08:50:06,VALID,919.251,VALID,0.0,VALID,90.283,VALID,181.907,VALID,20.439,VALID,335.0,VALID,0.823,
2018-06-24, 08:51:06,VALID,919.254,VALID,0.0,VALID,89.143,VALID,185.101,VALID,20.464,VALID,339.0,VALID,0.801,
2018-06-24, 08:52:06,VALID,919.268,VALID,0.0,VALID,89.58,VALID,187.703,VALID,20.507,VALID,341.0,VALID,0.832,
2018-06-24, 08:53:06,VALID,919.28,VALID,0.0,VALID,88.381,VALID,190.218,VALID,20.526,VALID,4.0,VALID,0.539,
2018-06-24, 08:54:06,VALID,919.28,VALID,0.0,VALID,89.166,VALID,192.924,VALID,20.542,VALID,351.0,VALID,0.812,
2018-06-24, 08:55:06,VALID,919.265,VALID,0.0,VALID,87.741,VALID,195.895,VALID,20.52,VALID,9.0,VALID,1.227,
2018-06-24, 08:56:06,VALID,919.257,VALID,0.0,VALID,88.387,VALID,199.394,VALID,20.535,VALID,337.0,VALID,0.773,
2018-06-24, 08:57:06,VALID,919.236,VALID,0.0,VALID,87.648,VALID,203.712,VALID,20.564,VALID,352.0,VALID,1.127,
2018-06-24, 08:58:06,VALID,919.221,VALID,0.0,VALID,87.559,VALID,208.58,VALID,20.564,VALID,345.0,VALID,1.131,
2018-06-24, 08:59:06,VALID,919.199,VALID,0.0,VALID,87.588,VALID,213.356,VALID,20.541,VALID,350.0,VALID,0.799,
2018-06-24, 09:00:06,VALID,919.188,VALID,0.0,VALID,88.007,VALID,217.948,VALID,20.515,VALID,359.0,VALID,0.592,
2018-06-24, 09:01:06,VALID,919.17,VALID,0.0,VALID,88.891,VALID,221.931,VALID,20.535,VALID,328.0,VALID,0.582,
2018-06-24, 09:02:06,VALID,919.161,VALID,0.0,VALID,88.176,VALID,225.547,VALID,20.587,VALID,346.0,VALID,1.053,
2018-06-24, 09:03:06,VALID,919.141,VALID,0.0,VALID,88.385,VALID,228.016,VALID,20.56,VALID,354.0,VALID,1.203,
2018-06-24, 09:04:06,VALID,919.142,VALID,0.0,VALID,88.423,VALID,229.783,VALID,20.488,VALID,352.0,VALID,0.584,
2018-06-24, 09:05:06,VALID,919.141,VALID,0.0,VALID,89.335,VALID,230.665,VALID,20.535,VALID,309.0,VALID,0.006,
2018-06-24, 09:06:06,VALID,919.134,VALID,0.0,VALID,88.794,VALID,231.03,VALID,20.625,VALID,344.0,VALID,0.427,
2018-06-24, 09:07:06,VALID,919.138,VALID,0.0,VALID,87.541,VALID,230.693,VALID,20.67,VALID,10.0,VALID,0.815,
2018-06-24, 09:08:06,VALID,919.121,VALID,0.0,VALID,87.386,VALID,230.44,VALID,20.695,VALID,12.0,VALID,0.489,
2018-06-24, 09:09:06,VALID,919.124,VALID,0.0,VALID,88.429,VALID,230.743,VALID,20.745,VALID,339.0,VALID,0.138,
2018-06-24, 09:10:06,VALID,919.124,VALID,0.0,VALID,88.01,VALID,232.023,VALID,20.817,VALID,12.0,VALID,0.811,
2018-06-24, 09:11:06,VALID,919.121,VALID,0.0,VALID,87.612,VALID,233.738,VALID,20.849,VALID,20.0,VALID,0.563,
2018-06-24, 09:12:06,VALID,919.101,VALID,0.0,VALID,86.78,VALID,235.913,VALID,20.873,VALID,322.0,VALID,0.127,
2018-06-24, 09:13:06,VALID,919.091,VALID,0.0,VALID,87.209,VALID,239.481,VALID,20.921,VALID,360.0,VALID,1.202,
2018-06-24, 09:14:06,VALID,919.077,VALID,0.0,VALID,84.827,VALID,244.394,VALID,20.862,VALID,358.0,VALID,1.441,
2018-06-24, 09:15:06,VALID,919.073,VALID,0.0,VALID,86.813,VALID,251.135,VALID,20.878,VALID,4.0,VALID,1.028,
2018-06-24, 09:16:06,VALID,919.062,VALID,0.0,VALID,87.575,VALID,259.029,VALID,20.918,VALID,333.0,VALID,0.856,
2018-06-24, 09:17:06,VALID,919.035,VALID,0.0,VALID,87.109,VALID,267.293,VALID,20.958,VALID,6.0,VALID,1.057,
2018-06-24, 09:18:06,VALID,919.021,VALID,0.0,VALID,86.337,VALID,273.832,VALID,20.947,VALID,340.0,VALID,1.359,
2018-06-24, 09:19:06,VALID,919.018,VALID,0.0,VALID,86.413,VALID,277.978,VALID,20.947,VALID,359.0,VALID,0.766,
2018-06-24, 09:20:06,VALID,919.004,VALID,0.0,VALID,87.67,VALID,278.22,VALID,20.981,VALID,23.0,VALID,1.086,
2018-06-24, 09:21:06,VALID,919.007,VALID,0.0,VALID,86.825,VALID,277.711,VALID,21.035,VALID,3.0,VALID,0.915,
2018-06-24, 09:22:06,VALID,919.0,VALID,0.0,VALID,85.854,VALID,276.995,VALID,21.074,VALID,344.0,VALID,0.332,
2018-06-24, 09:23:06,VALID,918.999,VALID,0.0,VALID,87.191,VALID,276.051,VALID,21.108,VALID,353.0,VALID,0.19,
2018-06-24, 09:24:06,VALID,919.004,VALID,0.0,VALID,88.827,VALID,274.745,VALID,21.178,VALID,289.0,VALID,0.0,
2018-06-24, 09:25:06,VALID,919.011,VALID,0.0,VALID,88.528,VALID,274.441,VALID,21.245,VALID,340.0,VALID,0.0,
2018-06-24, 09:26:06,VALID,919.022,VALID,0.0,VALID,84.683,VALID,275.33,VALID,21.255,VALID,302.0,VALID,0.0,
2018-06-24, 09:27:06,VALID,919.026,VALID,0.0,VALID,85.986,VALID,278.601,VALID,21.315,VALID,355.0,VALID,0.899,
2018-06-24, 09:28:06,VALID,919.066,VALID,0.0,VALID,85.995,VALID,282.322,VALID,21.324,VALID,353.0,VALID,0.641,
2018-06-24, 09:29:06,VALID,919.063,VALID,0.0,VALID,85.128,VALID,285.582,VALID,21.325,VALID,316.0,VALID,1.021,
2018-06-24, 09:30:06,VALID,919.075,VALID,0.0,VALID,83.079,VALID,288.054,VALID,21.278,VALID,7.0,VALID,1.095,
2018-06-24, 09:31:06,VALID,919.096,VALID,0.0,VALID,84.115,VALID,288.37,VALID,21.219,VALID,18.0,VALID,1.161,
2018-06-24, 09:32:06,VALID,919.104,VALID,0.0,VALID,83.687,VALID,286.631,VALID,21.18,VALID,334.0,VALID,0.606,
2018-06-24, 09:33:06,VALID,919.093,VALID,0.0,VALID,85.211,VALID,283.842,VALID,21.235,VALID,357.0,VALID,1.086,
2018-06-24, 09:34:06,VALID,919.117,VALID,0.0,VALID,86.837,VALID,280.441,VALID,21.298,VALID,294.0,VALID,0.602,
2018-06-24, 09:35:06,VALID,919.119,VALID,0.0,VALID,85.587,VALID,277.331,VALID,21.27,VALID,277.0,VALID,0.671,
2018-06-24, 09:36:06,VALID,919.126,VALID,0.0,VALID,84.608,VALID,275.052,VALID,21.242,VALID,324.0,VALID,0.543,
2018-06-24, 09:37:06,VALID,919.115,VALID,0.0,VALID,83.513,VALID,273.998,VALID,21.239,VALID,358.0,VALID,1.386,
2018-06-24, 09:38:06,VALID,919.117,VALID,0.0,VALID,83.968,VALID,274.602,VALID,21.194,VALID,344.0,VALID,1.06,
2018-06-24, 09:39:06,VALID,919.117,VALID,0.0,VALID,85.242,VALID,277.193,VALID,21.208,VALID,337.0,VALID,0.573,
2018-06-24, 09:40:06,VALID,919.121,VALID,0.0,VALID,85.576,VALID,281.617,VALID,21.278,VALID,344.0,VALID,0.805,
2018-06-24, 09:41:06,VALID,919.119,VALID,0.0,VALID,84.603,VALID,287.069,VALID,21.326,VALID,339.0,VALID,1.1,
2018-06-24, 09:42:06,VALID,919.119,VALID,0.0,VALID,83.314,VALID,292.156,VALID,21.324,VALID,354.0,VALID,0.572,
2018-06-24, 09:43:06,VALID,919.12,VALID,0.0,VALID,84.916,VALID,296.303,VALID,21.351,VALID,325.0,VALID,0.733,
2018-06-24, 09:44:06,VALID,919.111,VALID,0.0,VALID,83.721,VALID,298.689,VALID,21.392,VALID,5.0,VALID,0.67,
2018-06-24, 09:45:06,VALID,919.111,VALID,0.0,VALID,84.09,VALID,299.114,VALID,21.422,VALID,330.0,VALID,1.23,
2018-06-24, 09:46:06,VALID,919.103,VALID,0.0,VALID,84.642,VALID,300.041,VALID,21.423,VALID,339.0,VALID,1.243,
2018-06-24, 09:47:06,VALID,919.117,VALID,0.0,VALID,84.093,VALID,307.185,VALID,21.348,VALID,343.0,VALID,1.413,
2018-06-24, 09:48:06,VALID,919.114,VALID,0.0,VALID,84.057,VALID,318.096,VALID,21.297,VALID,347.0,VALID,0.985,
2018-06-24, 09:49:06,VALID,919.106,VALID,0.0,VALID,82.827,VALID,333.324,VALID,21.307,VALID,353.0,VALID,1.293,
2018-06-24, 09:50:06,VALID,919.109,VALID,0.0,VALID,84.381,VALID,338.864,VALID,21.288,VALID,305.0,VALID,0.579,
2018-06-24, 09:51:06,VALID,919.112,VALID,0.0,VALID,85.967,VALID,344.293,VALID,21.375,VALID,323.0,VALID,0.356,
2018-06-24, 09:52:06,VALID,919.099,VALID,0.0,VALID,85.767,VALID,401.51,VALID,21.496,VALID,30.0,VALID,0.248,
2018-06-24, 09:53:06,VALID,919.091,VALID,0.0,VALID,85.222,VALID,360.87,VALID,21.634,VALID,335.0,VALID,0.317,
2018-06-24, 09:54:06,VALID,919.076,VALID,0.0,VALID,84.058,VALID,334.166,VALID,21.758,VALID,352.0,VALID,0.209,
2018-06-24, 09:55:06,VALID,919.075,VALID,0.0,VALID,82.825,VALID,328.067,VALID,21.777,VALID,341.0,VALID,0.915,
2018-06-24, 09:56:06,VALID,919.081,VALID,0.0,VALID,82.035,VALID,329.582,VALID,21.762,VALID,351.0,VALID,0.614,
2018-06-24, 09:57:06,VALID,919.073,VALID,0.0,VALID,81.49,VALID,333.029,VALID,21.753,VALID,352.0,VALID,0.939,
2018-06-24, 09:58:06,VALID,919.069,VALID,0.0,VALID,80.444,VALID,339.882,VALID,21.722,VALID,347.0,VALID,1.23,
2018-06-24, 09:59:06,VALID,919.074,VALID,0.0,VALID,82.406,VALID,351.263,VALID,21.708,VALID,360.0,VALID,0.9,
2018-06-24, 10:00:06,VALID,919.072,VALID,0.0,VALID,82.053,VALID,358.656,VALID,21.751,VALID,358.0,VALID,1.068,
2018-06-24, 10:01:06,VALID,919.091,VALID,0.0,VALID,80.219,VALID,362.006,VALID,21.813,VALID,348.0,VALID,0.932,
2018-06-24, 10:02:06,VALID,919.086,VALID,0.0,VALID,79.546,VALID,370.433,VALID,21.784,VALID,353.0,VALID,1.424,
2018-06-24, 10:03:06,VALID,919.083,VALID,0.0,VALID,78.39,VALID,381.428,VALID,21.75,VALID,360.0,VALID,1.117,
2018-06-24, 10:04:06,VALID,919.084,VALID,0.0,VALID,78.12,VALID,390.209,VALID,21.733,VALID,345.0,VALID,0.951,
2018-06-24, 10:05:06,VALID,919.082,VALID,0.0,VALID,78.4,VALID,410.92,VALID,21.768,VALID,351.0,VALID,1.016,
2018-06-24, 10:06:06,VALID,919.09,VALID,0.0,VALID,77.438,VALID,428.624,VALID,21.727,VALID,14.0,VALID,0.34,
2018-06-24, 10:07:06,VALID,919.077,VALID,0.0,VALID,77.796,VALID,421.473,VALID,21.771,VALID,9.0,VALID,0.0,
2018-06-24, 10:08:06,VALID,919.074,VALID,0.0,VALID,79.083,VALID,416.81,VALID,21.891,VALID,49.0,VALID,0.105,
2018-06-24, 10:09:06,VALID,919.079,VALID,0.0,VALID,80.586,VALID,431.559,VALID,22.027,VALID,49.0,VALID,0.363,
2018-06-24, 10:10:06,VALID,919.055,VALID,0.0,VALID,80.502,VALID,421.491,VALID,22.252,VALID,22.0,VALID,0.496,
2018-06-24, 10:11:06,VALID,919.045,VALID,0.0,VALID,79.0,VALID,409.061,VALID,22.453,VALID,44.0,VALID,0.961,
2018-06-24, 10:12:06,VALID,919.06,VALID,0.0,VALID,79.164,VALID,400.557,VALID,22.546,VALID,345.0,VALID,0.97,
2018-06-24, 10:13:06,VALID,919.063,VALID,0.0,VALID,75.901,VALID,394.704,VALID,22.512,VALID,338.0,VALID,1.282,
2018-06-24, 10:14:06,VALID,919.072,VALID,0.0,VALID,73.607,VALID,390.761,VALID,22.442,VALID,334.0,VALID,0.869,
2018-06-24, 10:15:06,VALID,919.072,VALID,0.0,VALID,72.904,VALID,391.389,VALID,22.41,VALID,319.0,VALID,0.725,
2018-06-24, 10:16:06,VALID,919.086,VALID,0.0,VALID,73.4,VALID,394.642,VALID,22.424,VALID,339.0,VALID,0.99,
2018-06-24, 10:17:06,VALID,919.1,VALID,0.0,VALID,73.037,VALID,401.076,VALID,22.356,VALID,344.0,VALID,0.994,
2018-06-24, 10:18:06,VALID,919.117,VALID,0.0,VALID,72.911,VALID,408.477,VALID,22.343,VALID,319.0,VALID,0.463,
2018-06-24, 10:19:06,VALID,919.131,VALID,0.0,VALID,73.693,VALID,416.967,VALID,22.43,VALID,279.0,VALID,0.1,
2018-06-24, 10:20:06,VALID,919.143,VALID,0.0,VALID,73.855,VALID,426.403,VALID,22.512,VALID,345.0,VALID,0.755,
2018-06-24, 10:21:06,VALID,919.164,VALID,0.0,VALID,72.352,VALID,436.027,VALID,22.443,VALID,23.0,VALID,1.36,
2018-06-24, 10:22:06,VALID,919.155,VALID,0.0,VALID,75.584,VALID,451.934,VALID,22.357,VALID,46.0,VALID,1.6,
2018-06-24, 10:23:06,VALID,919.164,VALID,0.0,VALID,78.964,VALID,479.125,VALID,22.467,VALID,349.0,VALID,1.143,
2018-06-24, 10:24:06,VALID,919.17,VALID,0.0,VALID,76.912,VALID,527.472,VALID,22.49,VALID,13.0,VALID,0.414,
2018-06-24, 10:25:06,VALID,919.153,VALID,0.0,VALID,74.957,VALID,548.421,VALID,22.539,VALID,6.0,VALID,0.52,
2018-06-24, 10:26:06,VALID,919.151,VALID,0.0,VALID,71.67,VALID,620.657,VALID,22.614,VALID,352.0,VALID,0.398,
2018-06-24, 10:27:06,VALID,919.139,VALID,0.0,VALID,69.267,VALID,643.46,VALID,22.673,VALID,21.0,VALID,0.868,
2018-06-24, 10:28:06,VALID,919.114,VALID,0.0,VALID,67.983,VALID,696.513,VALID,22.655,VALID,25.0,VALID,1.511,
2018-06-24, 10:29:06,VALID,919.092,VALID,0.0,VALID,71.081,VALID,600.452,VALID,22.762,VALID,21.0,VALID,1.801,
2018-06-24, 10:30:06,VALID,919.081,VALID,0.0,VALID,73.647,VALID,636.379,VALID,22.915,VALID,347.0,VALID,1.197,
2018-06-24, 10:31:06,VALID,919.074,VALID,0.0,VALID,72.25,VALID,667.012,VALID,22.995,INVALID,360.0,VALID,0.086,
2018-06-24, 10:32:06,VALID,919.064,VALID,0.0,VALID,72.272,VALID,522.362,VALID,23.141,VALID,262.0,VALID,0.186,
2018-06-24, 10:33:06,VALID,919.036,VALID,0.0,VALID,70.297,VALID,507.405,VALID,23.208,VALID,13.0,VALID,0.951,
2018-06-24, 10:34:06,VALID,919.028,VALID,0.0,VALID,73.387,VALID,505.405,VALID,23.236,VALID,336.0,VALID,0.975,
2018-06-24, 10:35:06,VALID,919.013,VALID,0.0,VALID,72.386,VALID,486.751,VALID,23.405,VALID,327.0,VALID,0.598,
2018-06-24, 10:36:06,VALID,919.005,VALID,0.0,VALID,70.363,VALID,498.271,VALID,23.503,VALID,1.0,VALID,0.94,